Showing default

QIANFAN-100, 66042

Orbit data source: Space-Track

QIANFAN-100, 66042 is a Chinese payload satellite in LEO that was launched on Fri, 17 Oct 2025 UTC via a CHANG ZHENG 6A launch vehicle from the Taiyaun Space Center, China (TSC). Payload-class satellites include a variety of spacecraft equipped with specific instruments for various scientific and technological missions. These include communications satellites like Starlink; space stations such as the ISS; scientific satellites like the Hubble; Earth observation satellites from companies like Planet Labs, Umbra, and HawkEye 360; GPS; miniature CubeSats for education and research; and military/defense satellites.

Loading next visibility...
Identifier
66042, 2025-233K
Orbit
LEO
Country
Flag of CNCN / PRC
Related business
Manufacturer
SECM
Mission
Operational Commercial Communications
Bus & Motor
QIANFAN, Unknown motor
Mass
267 kg wet, ~267 kg dry
Launch date (UTC)
2025-10-17 (7 months ago)
Launch vehicle
CHANG ZHENG 6A
Launch site
Taiyaun Space Center, China (TSC)
Object type
Payload
Rocket body
Debris
Shape & HBR
Box + 1 Pan, 14.5 m
Radar Cross Section
13.200 m²

Expand to show TLE details & history
Last TLE update: 8 hours ago

TLE from 8 hours ago
0 QIANFAN-100
1 66042U 25233K   26130.16370300  .00000136  00000-0  19226-3 0  9998
2 66042  89.0036  46.9508 0002379  71.3569 288.7841 13.51005507 28106
Epoch: 2026-05-10T03:55Z
TLE epoch observation values (Epoch: 2026-05-10T03:55:43.939Z)
Latitude
0.00006°
Longitude
120.047°
Altitude
1,070.944 km
Speed
7.317 km/s
True Right ascension
03h 07m 48s
True Declination
0° 00' 00"
Sunlit
Object was in daylight at epoch
Visualization orbit readout
Latitude
Unknown
Longitude
Unknown
Altitude
Unknown
Speed
Unknown
Apparent Right ascension
Unknown
Apparent Declination
Unknown
Sunlit
N/A
Visualization observer readout
Local Sidereal Time
20:32:22
Azimuth
Unknown
Elevation
Unknown
Doppler factor
Unknown
Orbital elements
Apogee altitude
1,067.383 km
Perigee altitude
1,063.841 km
Semi-major axis
7,443.749 km
Eccentricity
0.00024
Inclination
89.0036°
RAAN
46.9508°
Arg. of periapsis
71.3569°
True anomaly
288.75829°
Mean anomaly
288.7841°
Eccentric anomaly
288.77119°
Mean motion
3.37952 °/min
Orbital period
106.52 mins
BSTAR
0.00019226
Loading maneuver chart data...
Computing Atmospheric mass density...
Loading historical data...
Loading historical data...
Loading historical data...
Loading historical data...
Loading historical data...
Loading historical data...
Loading historical data...

Documentation

Showing up to 5 results
|